| time (UTC) | temp F | wind direction | speed knots | gust knots | rain 1hr in | rain 24hr in | rain mn in | humidity % | barometer mb |
| 20260906113713 | 69 | 264 | 0.0 | 0.0 | 0.00 | 0.00 | 0.00 | 99 | 1015.3 |
| 20260906113213 | 69 | 263 | 0.0 | 0.0 | 0.00 | 0.00 | 0.00 | 99 | 1015.1 |
| 20260906112712 | 69 | 264 | 0.0 | 0.0 | 0.00 | 0.00 | 0.00 | 99 | 1015.1 |
| 20260906112210 | 69 | 261 | 0.0 | 0.0 | 0.00 | 0.00 | 0.00 | 99 | 1015.2 |
| 20260906111709 | 69 | 261 | 0.0 | 0.0 | 0.00 | 0.00 | 0.00 | 99 | 1015.2 |
| 20260906111203 | 69 | 260 | 0.0 | 0.0 | 0.00 | 0.00 | 0.00 | 99 | 1015.0 |
| 20260906110658 | 69 | 262 | 0.0 | 0.0 | 0.00 | 0.00 | 0.00 | 99 | 1015.3 |
| 20260906110154 | 69 | 265 | 0.0 | 0.0 | 0.00 | 0.00 | 0.00 | 99 | 1015.3 |
| 20260906105648 | 69 | 266 | 0.0 | 0.0 | 0.00 | 0.00 | 0.00 | 99 | 1015.2 |
| 20260906105144 | 69 | 263 | 0.0 | 0.0 | 0.00 | 0.00 | 0.00 | 99 | 1015.1 |
| 20260906104643 | 69 | 265 | 0.0 | 0.0 | 0.00 | 0.00 | 0.00 | 99 | 1014.9 |
| 20260906104143 | 69 | 265 | 0.0 | 0.0 | 0.00 | 0.00 | 0.00 | 99 | 1015.1 |
| 20260906103641 | 69 | 265 | 0.0 | 0.0 | 0.00 | 0.00 | 0.00 | 99 | 1014.9 |
| 20260906103136 | 69 | 263 | 0.0 | 0.0 | 0.00 | 0.00 | 0.00 | 99 | 1015.0 |
| 20260906102632 | 69 | 261 | 0.0 | 0.0 | 0.00 | 0.00 | 0.00 | 99 | 1014.8 |
| 20260906102132 | 69 | 269 | 0.0 | 0.0 | 0.00 | 0.00 | 0.00 | 99 | 1014.9 |
| 20260906101631 | 69 | 263 | 0.0 | 0.0 | 0.00 | 0.00 | 0.00 | 99 | 1015.0 |
| 20260906101131 | 69 | 263 | 0.0 | 0.0 | 0.00 | 0.00 | 0.00 | 99 | 1014.9 |
| 20260906100627 | 69 | 264 | 0.0 | 0.0 | 0.00 | 0.00 | 0.00 | 99 | 1015.1 |
| 20260906100122 | 69 | 262 | 0.0 | 0.0 | 0.00 | 0.00 | 0.00 | 99 | 1014.9 |
| 20260906095622 | 69 | 261 | 0.0 | 0.0 | 0.00 | 0.00 | 0.00 | 99 | 1014.8 |
| 20260906095118 | 69 | 262 | 0.0 | 0.0 | 0.00 | 0.00 | 0.00 | 99 | 1014.9 |
| 20260906094616 | 69 | 266 | 0.0 | 0.0 | 0.00 | 0.00 | 0.00 | 99 | 1014.6 |
| 20260906094113 | 69 | 275 | 0.0 | 0.0 | 0.00 | 0.00 | 0.00 | 99 | 1014.7 |
| 20260906093609 | 69 | 276 | 0.0 | 0.0 | 0.00 | 0.00 | 0.00 | 99 | 1014.5 |
| 20260906093108 | 69 | 263 | 0.0 | 0.0 | 0.00 | 0.00 | 0.00 | 99 | 1014.6 |
| 20260906092603 | 69 | 266 | 0.0 | 0.0 | 0.00 | 0.00 | 0.00 | 99 | 1014.6 |
| 20260906092059 | 69 | 269 | 0.0 | 0.0 | 0.00 | 0.00 | 0.00 | 99 | 1014.6 |
| 20260906091554 | 69 | 260 | 0.0 | 0.0 | 0.00 | 0.00 | 0.00 | 99 | 1014.5 |
| 20260906091051 | 69 | 261 | 0.0 | 0.0 | 0.00 | 0.00 | 0.00 | 99 | 1014.4 |
| 20260906090550 | 69 | 260 | 0.0 | 0.0 | 0.00 | 0.00 | 0.00 | 99 | 1014.4 |
| 20260906090046 | 69 | 260 | 0.0 | 0.0 | 0.00 | 0.00 | 0.00 | 99 | 1014.3 |
| 20260906085544 | 69 | 264 | 0.0 | 0.0 | 0.00 | 0.00 | 0.00 | 99 | 1014.6 |
| 20260906085044 | 69 | 261 | 0.0 | 0.0 | 0.00 | 0.00 | 0.00 | 99 | 1014.4 |
| 20260906084539 | 69 | 262 | 0.0 | 0.0 | 0.00 | 0.00 | 0.00 | 99 | 1014.4 |
| 20260906084037 | 69 | 261 | 0.0 | 0.0 | 0.00 | 0.00 | 0.00 | 99 | 1014.4 |
| 20260906083533 | 70 | 266 | 0.0 | 0.0 | 0.00 | 0.00 | 0.00 | 99 | 1014.5 |
| 20260906083033 | 69 | 266 | 0.0 | 0.0 | 0.00 | 0.00 | 0.00 | 99 | 1014.3 |
| 20260906082528 | 69 | 264 | 0.0 | 0.0 | 0.00 | 0.00 | 0.00 | 99 | 1014.4 |
| 20260906082024 | 70 | 261 | 0.0 | 0.0 | 0.00 | 0.00 | 0.00 | 99 | 1014.5 |
| 20260906081520 | 70 | 266 | 0.0 | 0.0 | 0.00 | 0.00 | 0.00 | 99 | 1014.4 |
| 20260906081015 | 70 | 271 | 0.0 | 0.0 | 0.00 | 0.00 | 0.00 | 99 | 1014.4 |
| 20260906080512 | 70 | 288 | 1.7 | 1.7 | 0.00 | 0.00 | 0.00 | 99 | 1014.5 |
| 20260906080008 | 70 | 286 | 0.0 | 0.0 | 0.00 | 0.00 | 0.00 | 99 | 1014.6 |
| 20260906075501 | 70 | 268 | 0.0 | 0.0 | 0.00 | 0.00 | 0.00 | 99 | 1014.5 |
| 20260906074957 | 70 | 270 | 0.0 | 0.0 | 0.00 | 0.00 | 0.00 | 99 | 1014.6 |
| 20260906074457 | 70 | 266 | 0.0 | 0.0 | 0.00 | 0.00 | 0.00 | 99 | 1014.5 |
| 20260906073955 | 70 | 271 | 0.0 | 0.0 | 0.00 | 0.00 | 0.00 | 99 | 1014.4 |
| 20260906073450 | 70 | 270 | 0.0 | 0.0 | 0.00 | 0.00 | 0.00 | 99 | 1014.5 |
| 20260906072946 | 70 | 266 | 0.0 | 0.0 | 0.00 | 0.00 | 0.00 | 99 | 1014.5 |
| 20260906072441 | 70 | 268 | 0.0 | 0.0 | 0.00 | 0.00 | 0.00 | 99 | 1014.5 |
| 20260906071937 | 70 | 283 | 0.0 | 0.0 | 0.00 | 0.00 | 0.00 | 99 | 1014.5 |
| 20260906071433 | 70 | 256 | 0.0 | 0.0 | 0.00 | 0.00 | 0.00 | 99 | 1014.6 |
| 20260906070929 | 70 | 263 | 0.0 | 0.0 | 0.00 | 0.00 | 0.00 | 99 | 1014.3 |
| 20260906070425 | 70 | 265 | 0.0 | 0.0 | 0.00 | 0.00 | 0.00 | 99 | 1014.4 |
| 20260906065920 | 70 | 263 | 0.0 | 0.0 | 0.00 | 0.00 | 0.00 | 99 | 1014.4 |
| 20260906065414 | 70 | 264 | 0.0 | 0.0 | 0.00 | 0.00 | 0.00 | 99 | 1014.3 |
| 20260906064910 | 70 | 263 | 0.0 | 0.0 | 0.00 | 0.00 | 0.00 | 99 | 1014.4 |
| 20260906064407 | 70 | 262 | 0.0 | 0.0 | 0.00 | 0.00 | 0.00 | 99 | 1014.6 |
| 20260906063906 | 70 | 262 | 0.0 | 0.0 | 0.00 | 0.00 | 0.00 | 99 | 1014.5 |
| 20260906063401 | 70 | 264 | 0.0 | 0.0 | 0.00 | 0.00 | 0.00 | 99 | 1014.6 |
| 20260906062857 | 70 | 262 | 0.0 | 0.0 | 0.00 | 0.00 | 0.00 | 99 | 1014.6 |
| 20260906062355 | 71 | 262 | 0.0 | 0.0 | 0.00 | 0.00 | 0.00 | 99 | 1014.6 |
| 20260906061852 | 71 | 266 | 0.0 | 0.0 | 0.00 | 0.00 | 0.00 | 99 | 1014.7 |
| 20260906061348 | 71 | 266 | 0.0 | 0.0 | 0.00 | 0.00 | 0.00 | 99 | 1014.6 |
| 20260906060842 | 71 | 266 | 0.0 | 0.0 | 0.00 | 0.00 | 0.00 | 99 | 1014.7 |
| 20260906060340 | 71 | 264 | 0.0 | 0.0 | 0.00 | 0.00 | 0.00 | 99 | 1014.7 |
| 20260906055835 | 71 | 262 | 0.0 | 0.0 | 0.00 | 0.00 | 0.00 | 99 | 1014.8 |
| 20260906055331 | 71 | 267 | 0.0 | 0.0 | 0.00 | 0.00 | 0.00 | 99 | 1014.8 |
| 20260906054826 | 71 | 262 | 0.0 | 0.0 | 0.00 | 0.00 | 0.00 | 99 | 1014.8 |
| 20260906054321 | 71 | 258 | 0.0 | 0.0 | 0.00 | 0.00 | 0.00 | 99 | 1015.2 |
| 20260906053818 | 71 | 265 | 0.0 | 0.0 | 0.00 | 0.00 | 0.00 | 99 | 1014.9 |
| 20260906053313 | 71 | 264 | 0.0 | 0.0 | 0.00 | 0.00 | 0.00 | 99 | 1015.0 |
| 20260906052808 | 71 | 262 | 0.0 | 0.0 | 0.00 | 0.00 | 0.00 | 99 | 1014.8 |
| 20260906052306 | 71 | 266 | 0.0 | 0.0 | 0.00 | 0.00 | 0.00 | 99 | 1015.0 |
| 20260906051801 | 71 | 266 | 0.0 | 0.0 | 0.00 | 0.00 | 0.00 | 99 | 1015.2 |
| 20260906051300 | 71 | 266 | 0.0 | 0.0 | 0.00 | 0.00 | 0.00 | 99 | 1015.1 |
| 20260906050756 | 71 | 270 | 0.0 | 0.0 | 0.00 | 0.00 | 0.00 | 99 | 1015.2 |
| 20260906050251 | 71 | 268 | 0.0 | 0.0 | 0.00 | 0.00 | 0.00 | 99 | 1015.2 |
| 20260906045750 | 71 | 281 | 0.0 | 0.0 | 0.00 | 0.00 | 0.00 | 99 | 1015.3 |
| 20260906045245 | 72 | 276 | 0.0 | 0.0 | 0.00 | 0.00 | 0.00 | 99 | 1015.4 |
| 20260906044741 | 72 | 280 | 0.9 | 0.9 | 0.00 | 0.00 | 0.00 | 99 | 1015.3 |
| 20260906044235 | 72 | 270 | 0.0 | 0.0 | 0.00 | 0.00 | 0.00 | 99 | 1015.3 |
| 20260906043732 | 72 | 266 | 0.0 | 0.0 | 0.00 | 0.00 | 0.00 | 99 | 1015.2 |
| 20260906043227 | 72 | 265 | 0.0 | 0.0 | 0.00 | 0.00 | 0.00 | 99 | 1015.3 |
| 20260906042727 | 72 | 283 | 0.0 | 0.0 | 0.00 | 0.00 | 0.00 | 99 | 1015.4 |
| 20260906042226 | 72 | 269 | 0.0 | 0.0 | 0.00 | 0.00 | 0.00 | 99 | 1015.2 |
| 20260906041722 | 72 | 269 | 0.0 | 0.0 | 0.00 | 0.00 | 0.00 | 99 | 1015.2 |
| 20260906041217 | 72 | 268 | 0.0 | 0.0 | 0.00 | 0.00 | 0.00 | 99 | 1015.3 |
| 20260906040712 | 72 | 264 | 0.0 | 0.0 | 0.00 | 0.00 | 0.00 | 99 | 1015.3 |
| 20260906040208 | 72 | 260 | 0.0 | 0.0 | 0.00 | 0.00 | 0.00 | 99 | 1015.2 |
| 20260906035703 | 73 | 262 | 0.0 | 0.0 | 0.00 | 0.00 | 0.00 | 99 | 1015.2 |
| 20260906035159 | 73 | 270 | 0.0 | 0.0 | 0.00 | 0.00 | 0.00 | 99 | 1015.4 |
| 20260906034653 | 72 | 267 | 0.0 | 0.0 | 0.00 | 0.00 | 0.00 | 99 | 1015.3 |
| 20260906034148 | 72 | 266 | 0.0 | 0.9 | 0.00 | 0.00 | 0.00 | 99 | 1015.4 |
| 20260906033644 | 72 | 266 | 0.0 | 0.0 | 0.00 | 0.00 | 0.00 | 99 | 1015.5 |
| 20260906033143 | 72 | 263 | 0.0 | 0.0 | 0.00 | 0.00 | 0.00 | 99 | 1015.7 |
| 20260906032640 | 72 | 256 | 1.7 | 1.7 | 0.00 | 0.00 | 0.00 | 99 | 1015.9 |
| 20260906032140 | 72 | 260 | 0.9 | 0.9 | 0.00 | 0.00 | 0.00 | 99 | 1015.8 |
| 20260906031635 | 72 | 273 | 0.0 | 0.0 | 0.00 | 0.00 | 0.00 | 99 | 1016.0 |
| 20260906031131 | 72 | 271 | 0.9 | 0.9 | 0.00 | 0.00 | 0.00 | 99 | 1016.0 |
| 20260906030630 | 72 | 260 | 0.9 | 0.9 | 0.00 | 0.00 | 0.00 | 99 | 1016.1 |
| 20260906030125 | 72 | 263 | 0.0 | 0.0 | 0.00 | 0.00 | 0.00 | 99 | 1016.0 |
| 20260906025625 | 72 | 257 | 0.0 | 0.0 | 0.00 | 0.00 | 0.00 | 99 | 1016.2 |
| 20260906025124 | 72 | 263 | 0.0 | 0.0 | 0.00 | 0.00 | 0.00 | 99 | 1016.4 |
| 20260906024619 | 72 | 251 | 0.0 | 0.9 | 0.00 | 0.00 | 0.00 | 99 | 1016.3 |
| 20260906024113 | 72 | 262 | 0.0 | 0.0 | 0.00 | 0.00 | 0.00 | 99 | 1016.1 |
| 20260906023610 | 72 | 253 | 0.0 | 0.0 | 0.00 | 0.00 | 0.00 | 99 | 1015.9 |
| 20260906023109 | 72 | 262 | 0.0 | 0.0 | 0.00 | 0.00 | 0.00 | 99 | 1016.1 |
| 20260906022605 | 72 | 265 | 0.9 | 0.9 | 0.00 | 0.00 | 0.00 | 99 | 1016.0 |
| 20260906022100 | 73 | 287 | 2.6 | 2.6 | 0.00 | 0.00 | 0.00 | 99 | 1016.3 |
| 20260906021556 | 73 | 262 | 0.9 | 0.9 | 0.00 | 0.00 | 0.00 | 99 | 1016.0 |
| 20260906021054 | 73 | 282 | 0.9 | 0.9 | 0.00 | 0.00 | 0.00 | 99 | 1016.0 |
| 20260906020549 | 74 | 290 | 0.9 | 1.7 | 0.00 | 0.00 | 0.00 | 99 | 1016.2 |
| 20260906020049 | 73 | 260 | 0.0 | 0.0 | 0.00 | 0.00 | 0.00 | 99 | 1016.0 |
| 20260906015548 | 74 | 266 | 0.0 | 0.0 | 0.00 | 0.00 | 0.00 | 98 | 1015.8 |
| 20260906015047 | 74 | 270 | 0.0 | 0.0 | 0.00 | 0.00 | 0.00 | 97 | 1015.3 |
| 20260906014542 | 74 | 258 | 0.9 | 1.7 | 0.00 | 0.00 | 0.00 | 97 | 1015.3 |
| 20260906014038 | 73 | 280 | 2.6 | 2.6 | 0.00 | 0.00 | 0.00 | 98 | 1015.3 |
| 20260906013533 | 73 | 255 | 3.5 | 4.3 | 0.00 | 0.00 | 0.00 | 99 | 1015.2 |
| 20260906013029 | 73 | 265 | 0.0 | 0.0 | 0.00 | 0.00 | 0.00 | 99 | 1015.2 |
| 20260906012523 | 74 | 255 | 1.7 | 1.7 | 0.00 | 0.00 | 0.00 | 99 | 1015.1 |
| 20260906012023 | 74 | 256 | 1.7 | 1.7 | 0.00 | 0.00 | 0.00 | 98 | 1015.3 |
| 20260906011519 | 74 | 256 | 0.0 | 0.0 | 0.00 | 0.00 | 0.00 | 98 | 1015.4 |
| 20260906011019 | 76 | 261 | 0.0 | 0.9 | 0.00 | 0.00 | 0.00 | 95 | 1015.6 |
| 20260906010514 | 79 | 271 | 0.0 | 0.0 | 0.00 | 0.00 | 0.00 | 88 | 1015.2 |
| 20260906010011 | 81 | 242 | 1.7 | 1.7 | 0.00 | 0.00 | 0.00 | 85 | 1015.4 |
| 20260906005510 | 83 | 287 | 0.0 | 0.9 | 0.00 | 0.00 | 0.00 | 84 | 1015.7 |
| 20260906005009 | 83 | 266 | 0.9 | 1.7 | 0.00 | 0.00 | 0.00 | 82 | 1015.2 |
| 20260906004509 | 84 | 284 | 0.0 | 0.9 | 0.00 | 0.00 | 0.00 | 83 | 1015.1 |
| 20260906004004 | 85 | 259 | 0.9 | 1.7 | 0.00 | 0.00 | 0.00 | 82 | 1014.5 |
| 20260906003459 | 85 | 268 | 0.0 | 0.0 | 0.00 | 0.00 | 0.00 | 81 | 1014.3 |
| 20260906002954 | 85 | 268 | 0.0 | 0.0 | 0.00 | 0.00 | 0.00 | 81 | 1014.2 |
| 20260906002454 | 85 | 256 | 2.6 | 4.3 | 0.00 | 0.00 | 0.00 | 80 | 1013.4 |
| 20260906001950 | 86 | 243 | 2.6 | 2.6 | 0.00 | 0.00 | 0.00 | 80 | 1013.7 |
| 20260906001446 | 86 | 239 | 1.7 | 1.7 | 0.00 | 0.00 | 0.00 | 79 | 1013.4 |
| 20260906000940 | 86 | 235 | 3.5 | 5.2 | 0.00 | 0.00 | 0.00 | 79 | 1013.4 |
| 20260906000436 | 86 | 253 | 4.3 | 5.2 | 0.00 | 0.00 | 0.00 | 78 | 1013.7 |
| 20260905235930 | 86 | 266 | 1.7 | 1.7 | 0.00 | 0.00 | 0.00 | 79 | 1013.9 |
| 20260905235430 | 86 | 259 | 1.7 | 1.7 | 0.00 | 0.00 | 0.00 | 78 | 1014.1 |
| 20260905234925 | 87 | 251 | 1.7 | 1.7 | 0.00 | 0.00 | 0.00 | 78 | 1013.8 |
| 20260905234420 | 87 | 257 | 1.7 | 1.7 | 0.00 | 0.00 | 0.00 | 78 | 1013.8 |
| 20260905233915 | 87 | 253 | 0.9 | 0.9 | 0.00 | 0.00 | 0.00 | 78 | 1013.3 |
| 20260905233410 | 88 | 248 | 2.6 | 4.3 | 0.00 | 0.00 | 0.00 | 76 | 1013.7 |
| 20260905232909 | 88 | 257 | 1.7 | 2.6 | 0.00 | 0.00 | 0.00 | 76 | 1013.8 |
| 20260905232405 | 88 | 253 | 2.6 | 4.3 | 0.00 | 0.00 | 0.00 | 75 | 1014.0 |
| 20260905231900 | 88 | 262 | 2.6 | 2.6 | 0.00 | 0.00 | 0.00 | 74 | 1014.0 |
| 20260905231356 | 89 | 264 | 2.6 | 2.6 | 0.00 | 0.00 | 0.00 | 74 | 1014.0 |
| 20260905230853 | 89 | 283 | 3.5 | 5.2 | 0.00 | 0.00 | 0.00 | 74 | 1013.7 |
| 20260905230350 | 89 | 262 | 3.5 | 4.3 | 0.00 | 0.00 | 0.00 | 73 | 1013.8 |
| 20260905225849 | 89 | 290 | 4.3 | 5.2 | 0.00 | 0.00 | 0.00 | 73 | 1013.7 |
| 20260905225344 | 90 | 277 | 6.1 | 7.0 | 0.00 | 0.00 | 0.00 | 72 | 1013.7 |
| 20260905224839 | 90 | 273 | 6.1 | 7.0 | 0.00 | 0.00 | 0.00 | 72 | 1013.9 |
| 20260905224335 | 91 | 257 | 3.5 | 5.2 | 0.00 | 0.00 | 0.00 | 71 | 1013.8 |
| 20260905223830 | 91 | 256 | 4.3 | 5.2 | 0.00 | 0.00 | 0.00 | 71 | 1013.7 |
| 20260905223328 | 91 | 262 | 2.6 | 2.6 | 0.00 | 0.00 | 0.00 | 69 | 1013.8 |
| 20260905222822 | 92 | 235 | 2.6 | 2.6 | 0.00 | 0.00 | 0.00 | 66 | 1013.5 |
| 20260905222321 | 94 | 280 | 1.7 | 1.7 | 0.00 | 0.00 | 0.00 | 58 | 1013.3 |
| 20260905221817 | 94 | 266 | 0.0 | 0.0 | 0.00 | 0.00 | 0.00 | 52 | 1013.3 |
| 20260905221314 | 94 | 268 | 0.0 | 0.0 | 0.00 | 0.00 | 0.00 | 50 | 1013.5 |
| 20260905220809 | 95 | 263 | 0.0 | 0.0 | 0.00 | 0.00 | 0.00 | 49 | 1013.7 |
| 20260905220306 | 96 | 270 | 0.0 | 0.9 | 0.00 | 0.00 | 0.00 | 53 | 1013.4 |
| 20260905215804 | 96 | 258 | 1.7 | 1.7 | 0.00 | 0.00 | 0.00 | 46 | 1013.3 |
| 20260905215301 | 96 | 267 | 0.9 | 1.7 | 0.00 | 0.00 | 0.00 | 47 | 1013.4 |
| 20260905214756 | 95 | 272 | 0.9 | 0.9 | 0.00 | 0.00 | 0.00 | 49 | 1013.5 |
| 20260905214252 | 96 | 254 | 2.6 | 2.6 | 0.00 | 0.00 | 0.00 | 47 | 1013.3 |
| 20260905213747 | 96 | 278 | 0.9 | 0.9 | 0.00 | 0.00 | 0.00 | 48 | 1013.5 |
| 20260905213243 | 96 | 282 | 0.9 | 0.9 | 0.00 | 0.00 | 0.00 | 48 | 1013.4 |
| 20260905212738 | 96 | 259 | 0.0 | 0.0 | 0.00 | 0.00 | 0.00 | 50 | 1013.7 |
| 20260905212238 | 97 | 252 | 1.7 | 1.7 | 0.00 | 0.00 | 0.00 | 49 | 1013.5 |
| 20260905211737 | 97 | 266 | 0.0 | 0.0 | 0.00 | 0.00 | 0.00 | 50 | 1013.5 |
| 20260905211232 | 95 | 268 | 0.0 | 0.0 | 0.00 | 0.00 | 0.00 | 49 | 1013.7 |
| 20260905210729 | 96 | 46 | 0.9 | 1.7 | 0.00 | 0.00 | 0.00 | 49 | 1013.8 |
| 20260905210229 | 97 | 290 | 0.9 | 0.9 | 0.00 | 0.00 | 0.00 | 50 | 1013.7 |
| 20260905205727 | 96 | 266 | 0.0 | 0.0 | 0.00 | 0.00 | 0.00 | 49 | 1013.7 |
| 20260905205223 | 96 | 266 | 0.0 | 0.0 | 0.00 | 0.00 | 0.00 | 51 | 1013.7 |
| 20260905204722 | 95 | 267 | 0.0 | 0.0 | 0.00 | 0.00 | 0.00 | 50 | 1013.8 |
| 20260905204218 | 95 | 278 | 0.0 | 0.0 | 0.00 | 0.00 | 0.00 | 52 | 1013.9 |
| 20260905203717 | 95 | 270 | 0.0 | 0.0 | 0.00 | 0.00 | 0.00 | 52 | 1014.1 |
| 20260905203213 | 96 | 284 | 0.9 | 0.9 | 0.00 | 0.00 | 0.00 | 52 | 1014.0 |
| 20260905202708 | 96 | 233 | 1.7 | 1.7 | 0.00 | 0.00 | 0.00 | 50 | 1014.2 |
| 20260905202203 | 97 | 268 | 0.0 | 0.0 | 0.00 | 0.00 | 0.00 | 50 | 1014.1 |
| 20260905201659 | 98 | 262 | 0.0 | 0.9 | 0.00 | 0.00 | 0.00 | 48 | 1014.4 |
| 20260905201159 | 97 | 271 | 0.0 | 0.9 | 0.00 | 0.00 | 0.00 | 50 | 1014.4 |
| 20260905200654 | 97 | 253 | 0.0 | 0.9 | 0.00 | 0.00 | 0.00 | 52 | 1014.6 |
| 20260905200150 | 97 | 225 | 0.9 | 1.7 | 0.00 | 0.00 | 0.00 | 49 | 1014.5 |
| 20260905195648 | 97 | 283 | 0.9 | 0.9 | 0.00 | 0.00 | 0.00 | 52 | 1014.9 |
| 20260905195143 | 96 | 239 | 0.0 | 0.9 | 0.00 | 0.00 | 0.00 | 50 | 1014.5 |
| 20260905194638 | 97 | 267 | 0.0 | 0.9 | 0.00 | 0.00 | 0.00 | 48 | 1014.8 |
| 20260905194137 | 96 | 282 | 0.0 | 0.0 | 0.00 | 0.00 | 0.00 | 53 | 1014.6 |
| 20260905193632 | 96 | 303 | 0.9 | 0.9 | 0.00 | 0.00 | 0.00 | 54 | 1014.6 |
| 20260905193127 | 97 | 227 | 2.6 | 2.6 | 0.00 | 0.00 | 0.00 | 52 | 1014.7 |
| 20260905192623 | 96 | 264 | 0.9 | 0.9 | 0.00 | 0.00 | 0.00 | 51 | 1014.9 |
| 20260905192119 | 95 | 218 | 0.9 | 1.7 | 0.00 | 0.00 | 0.00 | 52 | 1014.9 |
| 20260905191618 | 95 | 241 | 2.6 | 2.6 | 0.00 | 0.00 | 0.00 | 53 | 1015.1 |
| 20260905191117 | 94 | 256 | 0.0 | 0.0 | 0.00 | 0.00 | 0.00 | 56 | 1015.1 |
| 20260905190615 | 93 | 284 | 0.9 | 0.9 | 0.00 | 0.00 | 0.00 | 58 | 1015.1 |
| 20260905190115 | 95 | 28 | 1.7 | 1.7 | 0.00 | 0.00 | 0.00 | 56 | 1015.0 |
| 20260905185613 | 97 | 265 | 0.9 | 0.9 | 0.00 | 0.00 | 0.00 | 55 | 1015.1 |
| 20260905185108 | 96 | 302 | 1.7 | 1.7 | 0.00 | 0.00 | 0.00 | 55 | 1015.4 |
| 20260905184603 | 95 | 263 | 0.9 | 0.9 | 0.00 | 0.00 | 0.00 | 51 | 1015.1 |
| 20260905184101 | 95 | 141 | 3.5 | 5.2 | 0.00 | 0.00 | 0.00 | 51 | 1015.5 |
| 20260905183555 | 95 | 273 | 0.9 | 0.9 | 0.00 | 0.00 | 0.00 | 52 | 1015.5 |
| 20260905183051 | 95 | 260 | 0.9 | 0.9 | 0.00 | 0.00 | 0.00 | 52 | 1015.7 |
| 20260905182550 | 96 | 221 | 0.0 | 0.9 | 0.00 | 0.00 | 0.00 | 52 | 1015.6 |
| 20260905182050 | 95 | 299 | 0.9 | 1.7 | 0.00 | 0.00 | 0.00 | 54 | 1015.7 |
| 20260905181544 | 94 | 266 | 1.7 | 2.6 | 0.00 | 0.00 | 0.00 | 57 | 1015.8 |
| 20260905181039 | 96 | 7 | 1.7 | 1.7 | 0.00 | 0.00 | 0.00 | 56 | 1015.8 |
| 20260905180538 | 96 | 244 | 0.9 | 0.9 | 0.00 | 0.00 | 0.00 | 56 | 1015.9 |
| 20260905180034 | 94 | 260 | 1.7 | 1.7 | 0.00 | 0.00 | 0.00 | 55 | 1016.0 |
| 20260905175533 | 93 | 316 | 2.6 | 2.6 | 0.00 | 0.00 | 0.00 | 56 | 1015.9 |
| 20260905175029 | 92 | 270 | 0.0 | 0.0 | 0.00 | 0.00 | 0.00 | 59 | 1016.1 |
| 20260905174525 | 92 | 310 | 2.6 | 2.6 | 0.00 | 0.00 | 0.00 | 58 | 1016.1 |
| 20260905174020 | 92 | 268 | 0.0 | 0.9 | 0.00 | 0.00 | 0.00 | 62 | 1016.1 |
| 20260905173516 | 94 | 276 | 0.9 | 0.9 | 0.00 | 0.00 | 0.00 | 58 | 1016.4 |
| 20260905173012 | 92 | 261 | 0.9 | 0.9 | 0.00 | 0.00 | 0.00 | 59 | 1016.1 |
| 20260905172509 | 93 | 266 | 0.9 | 0.9 | 0.00 | 0.00 | 0.00 | 63 | 1016.4 |
| 20260905172005 | 91 | 261 | 0.0 | 0.0 | 0.00 | 0.00 | 0.00 | 61 | 1016.6 |
| 20260905171502 | 92 | 263 | 0.0 | 0.9 | 0.00 | 0.00 | 0.00 | 61 | 1016.3 |
| 20260905170958 | 93 | 350 | 0.9 | 1.7 | 0.00 | 0.00 | 0.00 | 61 | 1016.5 |
| 20260905170454 | 91 | 278 | 0.0 | 0.9 | 0.00 | 0.00 | 0.00 | 63 | 1016.8 |
| 20260905165954 | 92 | 292 | 2.6 | 2.6 | 0.00 | 0.00 | 0.00 | 60 | 1016.9 |
| 20260905165449 | 94 | 272 | 0.9 | 0.9 | 0.00 | 0.00 | 0.00 | 62 | 1016.8 |
| 20260905164944 | 94 | 277 | 0.0 | 0.0 | 0.00 | 0.00 | 0.00 | 62 | 1016.6 |
| 20260905164443 | 93 | 290 | 0.9 | 0.9 | 0.00 | 0.00 | 0.00 | 61 | 1017.0 |
| 20260905163938 | 93 | 236 | 0.9 | 1.7 | 0.00 | 0.00 | 0.00 | 59 | 1016.8 |
| 20260905163435 | 92 | 309 | 1.7 | 1.7 | 0.00 | 0.00 | 0.00 | 60 | 1017.1 |
| 20260905162931 | 93 | 335 | 2.6 | 2.6 | 0.00 | 0.00 | 0.00 | 60 | 1017.0 |
| 20260905162426 | 95 | 268 | 0.9 | 0.9 | 0.00 | 0.00 | 0.00 | 60 | 1016.9 |
| 20260905161921 | 93 | 298 | 2.6 | 2.6 | 0.00 | 0.00 | 0.00 | 61 | 1017.0 |
| 20260905161420 | 92 | 262 | 0.9 | 0.9 | 0.00 | 0.00 | 0.00 | 61 | 1017.2 |
| 20260905160918 | 93 | 262 | 0.0 | 0.9 | 0.00 | 0.00 | 0.00 | 64 | 1017.1 |
| 20260905160413 | 91 | 250 | 0.9 | 1.7 | 0.00 | 0.00 | 0.00 | 66 | 1017.1 |
| 20260905155912 | 91 | 240 | 1.7 | 1.7 | 0.00 | 0.00 | 0.00 | 64 | 1017.1 |
| 20260905155412 | 91 | 264 | 1.7 | 1.7 | 0.00 | 0.00 | 0.00 | 64 | 1017.2 |
| 20260905154910 | 91 | 294 | 1.7 | 1.7 | 0.00 | 0.00 | 0.00 | 65 | 1017.1 |
| 20260905154407 | 91 | 341 | 2.6 | 2.6 | 0.00 | 0.00 | 0.00 | 63 | 1017.3 |
| 20260905153902 | 92 | 279 | 0.0 | 0.9 | 0.00 | 0.00 | 0.00 | 68 | 1017.1 |
| 20260905153358 | 92 | 260 | 0.9 | 0.9 | 0.00 | 0.00 | 0.00 | 65 | 1017.1 |
| 20260905152858 | 91 | 290 | 2.6 | 2.6 | 0.00 | 0.00 | 0.00 | 65 | 1017.4 |
| 20260905152357 | 93 | 359 | 1.7 | 1.7 | 0.00 | 0.00 | 0.00 | 65 | 1017.1 |
| 20260905151853 | 91 | 330 | 1.7 | 1.7 | 0.00 | 0.00 | 0.00 | 67 | 1017.3 |
| 20260905151349 | 91 | 325 | 1.7 | 1.7 | 0.00 | 0.00 | 0.00 | 68 | 1017.2 |
| 20260905150848 | 90 | 352 | 0.0 | 0.9 | 0.00 | 0.00 | 0.00 | 68 | 1017.3 |
| 20260905150343 | 90 | 269 | 0.0 | 0.9 | 0.00 | 0.00 | 0.00 | 70 | 1017.4 |
| 20260905145840 | 90 | 269 | 0.9 | 0.9 | 0.00 | 0.00 | 0.00 | 68 | 1017.3 |
| 20260905145340 | 89 | 263 | 0.0 | 0.9 | 0.00 | 0.00 | 0.00 | 68 | 1017.3 |
| 20260905144839 | 89 | 334 | 3.5 | 4.3 | 0.00 | 0.00 | 0.00 | 69 | 1017.4 |
| 20260905144335 | 89 | 306 | 0.9 | 0.9 | 0.00 | 0.00 | 0.00 | 71 | 1017.4 |
| 20260905143833 | 89 | 273 | 0.0 | 0.0 | 0.00 | 0.00 | 0.00 | 72 | 1017.3 |
| 20260905143328 | 87 | 286 | 0.0 | 0.0 | 0.00 | 0.00 | 0.00 | 74 | 1017.5 |
| 20260905142827 | 87 | 11 | 5.2 | 6.1 | 0.00 | 0.00 | 0.00 | 72 | 1017.7 |
| 20260905142321 | 87 | 256 | 0.0 | 0.0 | 0.00 | 0.00 | 0.00 | 76 | 1017.4 |
| 20260905141818 | 86 | 262 | 0.0 | 0.0 | 0.00 | 0.00 | 0.00 | 76 | 1017.5 |
| 20260905141313 | 85 | 276 | 0.9 | 1.7 | 0.00 | 0.00 | 0.00 | 78 | 1017.4 |
| 20260905140809 | 86 | 319 | 0.9 | 0.9 | 0.00 | 0.00 | 0.00 | 78 | 1017.7 |
| 20260905140308 | 86 | 261 | 0.9 | 0.9 | 0.00 | 0.00 | 0.00 | 79 | 1017.4 |
| 20260905135807 | 86 | 281 | 2.6 | 2.6 | 0.00 | 0.00 | 0.00 | 78 | 1017.6 |
| 20260905135306 | 85 | 263 | 0.0 | 0.0 | 0.00 | 0.00 | 0.00 | 79 | 1017.7 |
| 20260905134803 | 84 | 263 | 0.0 | 0.0 | 0.00 | 0.00 | 0.00 | 82 | 1017.8 |
| 20260905134256 | 82 | 270 | 0.0 | 0.9 | 0.00 | 0.00 | 0.00 | 84 | 1017.7 |
| 20260905133751 | 82 | 307 | 0.9 | 1.7 | 0.00 | 0.00 | 0.00 | 84 | 1017.5 |
| 20260905133246 | 82 | 265 | 0.0 | 0.9 | 0.00 | 0.00 | 0.00 | 85 | 1017.6 |
| 20260905132745 | 82 | 342 | 1.7 | 1.7 | 0.00 | 0.00 | 0.00 | 85 | 1017.8 |
| 20260905132241 | 81 | 289 | 0.0 | 0.9 | 0.00 | 0.00 | 0.00 | 87 | 1017.7 |
| 20260905131736 | 81 | 286 | 0.9 | 0.9 | 0.00 | 0.00 | 0.00 | 87 | 1017.6 |
| 20260905131231 | 80 | 272 | 0.0 | 0.0 | 0.00 | 0.00 | 0.00 | 89 | 1017.6 |
| 20260905130726 | 78 | 267 | 0.9 | 0.9 | 0.00 | 0.00 | 0.00 | 92 | 1017.6 |
| 20260905130225 | 77 | 300 | 0.0 | 0.0 | 0.00 | 0.00 | 0.00 | 95 | 1017.8 |
| 20260905125720 | 75 | 272 | 0.9 | 0.9 | 0.00 | 0.00 | 0.00 | 96 | 1017.8 |
| 20260905125215 | 75 | 277 | 0.0 | 0.0 | 0.00 | 0.00 | 0.00 | 98 | 1017.8 |
| 20260905124713 | 74 | 277 | 0.0 | 0.0 | 0.00 | 0.00 | 0.00 | 99 | 1017.8 |
| 20260905124208 | 74 | 279 | 0.0 | 0.0 | 0.00 | 0.00 | 0.00 | 99 | 1017.6 |
| 20260905123708 | 73 | 266 | 0.0 | 0.0 | 0.00 | 0.00 | 0.00 | 99 | 1017.8 |
| 20260905123205 | 72 | 261 | 0.0 | 0.0 | 0.00 | 0.00 | 0.00 | 99 | 1017.6 |
| 20260905122704 | 71 | 263 | 0.0 | 0.0 | 0.00 | 0.00 | 0.00 | 99 | 1017.7 |
| 20260905122159 | 71 | 263 | 0.0 | 0.0 | 0.00 | 0.00 | 0.00 | 99 | 1017.8 |
| 20260905121654 | 70 | 259 | 0.0 | 0.0 | 0.00 | 0.00 | 0.00 | 99 | 1017.6 |
| 20260905121150 | 70 | 263 | 0.0 | 0.0 | 0.00 | 0.00 | 0.00 | 99 | 1017.7 |
| 20260905120649 | 70 | 265 | 0.0 | 0.0 | 0.00 | 0.00 | 0.00 | 99 | 1017.6 |
| 20260905120144 | 70 | 265 | 0.0 | 0.0 | 0.00 | 0.00 | 0.00 | 99 | 1017.6 |
| 20260905115643 | 70 | 265 | 0.0 | 0.0 | 0.00 | 0.00 | 0.00 | 99 | 1017.7 |
| 20260905115138 | 70 | 266 | 0.0 | 0.0 | 0.00 | 0.00 | 0.00 | 99 | 1017.5 |
| 20260905114638 | 70 | 283 | 0.0 | 0.0 | 0.00 | 0.00 | 0.00 | 99 | 1017.6 |
| 20260905114136 | 70 | 278 | 0.0 | 0.0 | 0.00 | 0.00 | 0.00 | 99 | 1017.4 |